EDDSEDDE

Guest
Details From EDDS - Stuttgart
To EDDE - Erfurt
Flight Number -
Tags generated
Created
Modified
Stats Distance 153 nm / 284 km
Max Altitude 17,100 ft / 5,212 m
Waypoints 3
Social Downloads 2
Likes 0
Share VATSIM

Download

Looking for another format? Having issues loading an existing format? Contact us
Advertisement - Login to hide

Notes

Basic altitude profile: - Ascent Rate: 1000ft/min - Ascent Speed: 150kts - Cruise Altitude: 35000ft - Cruise Speed: 200kts - Descent Rate: 1000ft/min - Descent Speed: 200kts Options: - Use NATs: yes - Use PACOTS: yes - Use low airways: yes - Use high airways: no

Route

EDDS OLIXA EDDE

ID Type Via Altitude Latitude Longitude Leg Dist Tot Dist Heading (true) Name
O EDDS APT - 0 ft / 0 m 48.68988˚ 9.22196˚ - 0 nm - Stuttgart
OLIXA FIX - 17,100 ft / 5,212 m 49.78972˚ 10.02250˚ 73 nm 73 nm 25° / 26° -
O EDDE APT - 0 ft / 0 m 50.97981˚ 10.95810˚ 79 nm 153 nm 26° / 27° Erfurt

Altitude Profile

Advertisement - Login to hide

EDDS

Details ICAO EDDS (STR)
Name Stuttgart
Region Germany - Civil
Timezone Europe/Berlin (UTC+1.0)
Stats Elevation 1,273 ft / 388 m (AMSL)
Location 48.689876° 9.221962°
Runways 1
Magnetic Variation 2.522° E

METAR

EDDS 121320Z 24011KT 200V280 9999 FEW032 SCT054 BKN240 04/M01 Q1010 NOSIG

Decode

TAF

TAF TAF EDDS 121100Z 1212/1312 23010KT 9999 BKN035 BECMG 1215/1218 22005KT BECMG 1310/1312 18010KT

Decode

Departure Runways

ID Width Length Bearing (true) Bearing (mag) Surface Threshold Offset Overrun Length
07 148 ft / 45 m 10,950 ft / 3,337 m 73.96° 71.44° Concrete 981 ft / 299 m 157 ft / 48 m
25 148 ft / 45 m 10,950 ft / 3,337 m 253.99° 251.47° Concrete 0 ft / 0 m 157 ft / 48 m

EDDE

Details ICAO EDDE (ERF)
Name Erfurt
Region Germany - Civil
Timezone Europe/Berlin (UTC+1.0)
Stats Elevation 1,035 ft / 315 m (AMSL)
Location 50.979808° 10.958105°
Runways 1
Magnetic Variation 3.024° E

METAR

EDDE 121320Z 23014KT 9999 FEW028 BKN036 03/M02 Q1006 TEMPO 24015G25KT

Decode

TAF

TAF TAF EDDE 121100Z 1212/1312 25020G35KT 9999 BKN040 BECMG 1213/1215 25015G25KT BECMG 1308/1310 21020G30KT

Decode

Destination Runways

ID Width Length Bearing (true) Bearing (mag) Surface Threshold Offset Overrun Length
10 164 ft / 50 m 8,523 ft / 2,598 m 98.24° 95.22° Asphalt 0 ft / 0 m 0 ft / 0 m
28 164 ft / 50 m 8,523 ft / 2,598 m 278.27° 275.25° Asphalt 656 ft / 200 m 0 ft / 0 m

Approach Navaids

Runway Type Ident Frequency Range Bearing (true) Bearing (mag) Slope Elevation
10 Localiser IERE 108.30 MHz 18 nm / 33 km 97.72° 94.69° - 1,016 ft / 310 m (AMSL)
10 Glidescope IERE 108.30 MHz 10 nm / 19 km 98.25° 95.23° 3.00° 1,035 ft / 315 m (AMSL)
28 Localiser IERW 109.90 MHz 18 nm / 33 km 277.68° 274.65° - 1,025 ft / 312 m (AMSL)
28 Glidescope IERW 109.90 MHz 10 nm / 19 km 278.25° 275.23° 3.00° 1,035 ft / 315 m (AMSL)

Popular Alternatives